Olathe New Century, KS

10:58 AM CDT on May 24, 2017 (GMT -0500)
New Century Aircenter

Weather History for KIXD - March, 2014

Change the Weather History Date:

Friday, March 7, 2014

  Actual Average Record
Temperature  
Mean Temperature 48 °F -  
Max Temperature 62 °F 46 °F 71 °F (2009)
Min Temperature 33 °F 25 °F 15 °F (2008)
Degree Days  
Heating Degree Days 18    
Moisture  
Dew Point 32 °F    
Average Humidity 67    
Maximum Humidity 85    
Minimum Humidity 31    
Precipitation  
Precipitation 0.00 in - - ()
Sea Level Pressure  
Sea Level Pressure 29.93 in    
Wind  
Wind Speed 13 mph (South)    
Max Wind Speed 20 mph    
Max Gust Speed 28 mph    
Visibility 7 miles    
Events      
Averages and records for this station are not official NWS values.
T = Trace of Precipitation, MM = Missing Value Source: NWS Daily Summary

Daily Weather History Graph

Daily Weather History Graph

Search for Another Location

Airport or City:

Trip Planner

Search our weather history database for the weather conditions in past years. The results will help you decide how hot, cold, wet, or windy it might be!

Date:

Astronomy

Mar. 07, 2014 Rise Set
Actual Time 6:43 AM CST 6:18 PM CST
Civil Twilight 6:16 AM CST 6:45 PM CST
Nautical Twilight 5:45 AM CST 7:16 PM CST
Astronomical Twilight 5:14 AM CST 7:47 PM CST
Moon 10:40 AM CST (3/7) 12:20 AM CST (3/7)
Length of Visible Light 12h 28m
Length of Day
11h 35m
Waxing Crescent, 42% of the Moon is Illuminated
Mar 7
Waxing Crescent
Mar 8
First Quarter
Mar 16
Full
Mar 23
Last Quarter
Mar 30
New

Hourly Weather History & Observations

Time (CST) Temp. Windchill Dew Point Humidity Pressure Visibility Wind Dir Wind Speed Gust Speed Precip Events Conditions
12:53 AM 36.0 °F 28.0 °F 30.0 °F 79% 29.96 in 6.0 mi South 11.5 mph - N/A   Haze
1:53 AM 36.0 °F 28.0 °F 30.0 °F 79% 29.94 in 6.0 mi South 11.5 mph - N/A   Haze
2:53 AM 35.1 °F 27.9 °F 28.9 °F 78% 29.93 in 6.0 mi South 9.2 mph - N/A   Haze
3:53 AM 34.0 °F 25.5 °F 28.9 °F 82% 29.92 in 6.0 mi South 11.5 mph - N/A   Haze
4:53 AM 33.1 °F 24.4 °F 28.0 °F 82% 29.91 in 6.0 mi South 11.5 mph - N/A   Haze
5:53 AM 34.0 °F 23.8 °F 28.0 °F 79% 29.90 in 6.0 mi South 16.1 mph - N/A   Haze
6:53 AM 34.0 °F 25.0 °F 28.9 °F 82% 29.90 in 5.0 mi South 12.7 mph - N/A   Haze
7:53 AM 36.0 °F 27.5 °F 30.0 °F 79% 29.91 in 5.0 mi South 12.7 mph - N/A   Haze
8:53 AM 39.9 °F 32.5 °F 32.0 °F 73% 29.91 in 6.0 mi South 12.7 mph - N/A   Haze
9:53 AM 46.0 °F 39.9 °F 35.1 °F 66% 29.90 in 8.0 mi South 13.8 mph - N/A   Clear
10:53 AM 52.0 °F - 35.1 °F 53% 29.90 in 10.0 mi SSW 16.1 mph 20.7 mph N/A   Clear
11:53 AM 54.0 °F - 34.0 °F 47% 29.88 in 10.0 mi South 13.8 mph - N/A   Clear
12:53 PM 57.9 °F - 33.1 °F 39% 29.86 in 10.0 mi South 11.5 mph - N/A   Clear
1:53 PM 60.1 °F - 30.9 °F 33% 29.83 in 10.0 mi South 11.5 mph - N/A   Clear
2:53 PM 62.1 °F - 30.9 °F 31% 29.83 in 10.0 mi South 11.5 mph - N/A   Clear
3:53 PM 61.0 °F - 30.9 °F 32% 29.83 in 10.0 mi South 8.1 mph - N/A   Partly Cloudy
4:53 PM 60.1 °F - 30.9 °F 33% 29.83 in 10.0 mi South 4.6 mph - N/A   Overcast
5:53 PM 55.0 °F - 32.0 °F 42% 29.86 in 10.0 mi SSW 3.5 mph - N/A   Overcast
6:53 PM 52.0 °F - 32.0 °F 47% 29.90 in 10.0 mi WSW 3.5 mph - N/A   Scattered Clouds
7:39 PM 46.9 °F - 37.0 °F 68% 29.92 in 9.0 mi North 17.3 mph - N/A   Mostly Cloudy
7:53 PM 46.0 °F 39.6 °F 37.0 °F 71% 29.94 in 9.0 mi North 15.0 mph 21.9 mph N/A   Partly Cloudy
8:53 PM 42.1 °F 33.9 °F 36.0 °F 79% 29.98 in 6.0 mi North 17.3 mph - N/A   Haze
9:10 PM 39.0 °F 29.3 °F 33.1 °F 79% 29.99 in 5.0 mi North 19.6 mph - N/A   Haze
9:21 PM 37.9 °F 28.2 °F 33.1 °F 83% 30.00 in 4.0 mi North 18.4 mph - N/A   Haze
9:53 PM 37.0 °F 26.7 °F 32.0 °F 82% 30.02 in 5.0 mi North 19.6 mph 27.6 mph N/A   Haze
10:48 PM 35.6 °F 25.2 °F 30.2 °F 81% 30.04 in 5.0 mi North 18.4 mph 24.2 mph N/A   Haze
10:53 PM 35.1 °F 24.1 °F 30.9 °F 85% 30.05 in 5.0 mi North 19.6 mph - N/A   Overcast
11:27 PM 34.0 °F 24.2 °F 30.0 °F 85% 30.04 in 5.0 mi North 15.0 mph - N/A   Overcast
11:53 PM 33.1 °F 22.6 °F 28.9 °F 85% 30.06 in 5.0 mi North 16.1 mph - N/A   Overcast